Time,TemperatureF,DewpointF,PressureIn,WindDirection,WindDirectionDegrees,WindSpeedMPH,WindSpeedGustMPH,Humidity,HourlyPrecipIn,Conditions,Clouds,dailyrainin,SoftwareType,DateUTC
2013-01-02 00:00:00,22.1,14.8,30.00,NW,317,1.0,7.0,73,0.00,,---,0.00,VWS V14.01,2013-01-02 05:00:00,
2013-01-02 00:02:00,22.1,14.5,30.00,NNW,335,2.0,4.0,72,0.00,,---,0.00,VWS V14.01,2013-01-02 05:02:00,
2013-01-02 00:03:00,22.1,14.5,30.00,NW,312,2.0,4.0,72,0.00,,---,0.00,VWS V14.01,2013-01-02 05:03:00,
2013-01-02 00:08:00,22.0,14.4,30.00,NNW,329,2.0,6.0,72,0.00,,---,0.00,VWS V14.01,2013-01-02 05:08:00,
2013-01-02 00:13:00,22.0,14.7,29.99,WNW,289,1.0,6.0,73,0.00,,---,0.00,VWS V14.01,2013-01-02 05:13:00,
2013-01-02 00:18:00,21.9,14.6,29.99,NW,324,0.0,6.0,73,0.00,,---,0.00,VWS V14.01,2013-01-02 05:18:00,
2013-01-02 00:23:00,21.8,14.5,30.00,NW,315,5.0,6.0,73,0.00,,---,0.00,VWS V14.01,2013-01-02 05:23:00,
2013-01-02 00:29:00,21.8,14.5,29.99,West,278,2.0,6.0,73,0.00,,---,0.00,VWS V14.01,2013-01-02 05:29:00,
2013-01-02 00:34:00,21.7,14.4,29.99,NNW,341,0.0,4.0,73,0.00,,---,0.00,VWS V14.01,2013-01-02 05:34:00,
2013-01-02 00:39:00,21.6,14.6,29.99,NNW,332,2.0,9.0,74,0.00,,---,0.00,VWS V14.01,2013-01-02 05:39:00,
2013-01-02 00:44:00,21.5,14.5,29.99,WNW,292,0.0,9.0,74,0.00,,---,0.00,VWS V14.01,2013-01-02 05:44:00,
2013-01-02 00:49:00,21.5,14.5,29.99,NNW,340,0.0,9.0,74,0.00,,---,0.00,VWS V14.01,2013-01-02 05:49:00,
2013-01-02 00:54:00,21.3,14.6,30.00,NNE,16,0.0,9.0,75,0.00,,---,0.00,VWS V14.01,2013-01-02 05:54:00,
2013-01-02 00:59:00,21.3,14.6,29.99,NE,34,2.0,9.0,75,0.00,,---,0.00,VWS V14.01,2013-01-02 05:59:00,
2013-01-02 01:04:00,21.2,14.5,29.98,North,349,2.0,5.0,75,0.00,,---,0.00,VWS V14.01,2013-01-02 06:04:00,
2013-01-02 01:09:00,21.1,14.4,29.99,NNW,346,3.0,5.0,75,0.00,,---,0.00,VWS V14.01,2013-01-02 06:09:00,
2013-01-02 01:15:00,21.1,14.4,29.99,WNW,292,1.0,5.0,75,0.00,,---,0.00,VWS V14.01,2013-01-02 06:15:00,
2013-01-02 01:20:00,21.1,14.4,29.99,NW,325,1.0,6.0,75,0.00,,---,0.00,VWS V14.01,2013-01-02 06:20:00,
2013-01-02 01:25:00,21.1,14.4,29.99,NNW,334,3.0,11.0,75,0.00,,---,0.00,VWS V14.01,2013-01-02 06:25:00,
2013-01-02 01:30:00,21.0,14.3,29.99,North,360,1.0,11.0,75,0.00,,---,0.00,VWS V14.01,2013-01-02 06:30:00,
2013-01-02 01:35:00,20.9,14.5,29.99,NNE,19,6.0,10.0,76,0.00,,---,0.00,VWS V14.01,2013-01-02 06:35:00,
2013-01-02 01:40:00,20.8,14.1,29.99,NNW,346,0.0,10.0,75,0.00,,---,0.00,VWS V14.01,2013-01-02 06:40:00,
2013-01-02 01:45:00,20.7,14.4,29.99,NW,320,1.0,10.0,76,0.00,,---,0.00,VWS V14.01,2013-01-02 06:45:00,
2013-01-02 01:50:00,20.6,13.9,29.99,NNE,22,5.0,10.0,75,0.00,,---,0.00,VWS V14.01,2013-01-02 06:50:00,
2013-01-02 01:55:00,20.5,13.9,29.99,NW,313,4.0,10.0,75,0.00,,---,0.00,VWS V14.01,2013-01-02 06:55:00,
2013-01-02 02:00:00,20.4,13.8,29.99,West,276,4.0,4.0,75,0.00,,---,0.00,VWS V14.01,2013-01-02 07:00:00,
2013-01-02 02:05:00,20.4,13.8,29.98,North,360,1.0,5.0,75,0.00,,---,0.00,VWS V14.01,2013-01-02 07:05:00,
2013-01-02 02:10:00,20.3,14.0,29.99,WNW,290,3.0,5.0,76,0.00,,---,0.00,VWS V14.01,2013-01-02 07:10:00,
2013-01-02 02:15:00,20.2,13.6,29.99,NNE,28,4.0,6.0,75,0.00,,---,0.00,VWS V14.01,2013-01-02 07:15:00,
2013-01-02 02:20:00,20.1,13.8,29.98,NNW,331,2.0,7.0,76,0.00,,---,0.00,VWS V14.01,2013-01-02 07:20:00,
2013-01-02 02:26:00,20.0,13.7,29.99,NW,319,1.0,7.0,76,0.00,,---,0.00,VWS V14.01,2013-01-02 07:26:00,
2013-01-02 02:31:00,19.9,13.6,30.00,NNW,333,0.0,3.0,76,0.00,,---,0.00,VWS V14.01,2013-01-02 07:31:00,
2013-01-02 02:36:00,19.8,13.5,30.00,NNW,332,0.0,5.0,76,0.00,,---,0.00,VWS V14.01,2013-01-02 07:36:00,
2013-01-02 02:41:00,19.7,13.4,30.01,NW,306,0.0,6.0,76,0.00,,---,0.00,VWS V14.01,2013-01-02 07:41:00,
2013-01-02 02:46:00,19.7,13.4,30.00,NW,309,2.0,6.0,76,0.00,,---,0.00,VWS V14.01,2013-01-02 07:46:00,
2013-01-02 02:51:00,19.7,13.4,30.00,North,5,3.0,12.0,76,0.00,,---,0.00,VWS V14.01,2013-01-02 07:51:00,
2013-01-02 02:56:00,19.7,13.1,30.00,NW,319,0.0,12.0,75,0.00,,---,0.00,VWS V14.01,2013-01-02 07:56:00,
2013-01-02 03:01:00,19.7,13.1,30.00,NW,325,3.0,3.0,75,0.00,,---,0.00,VWS V14.01,2013-01-02 08:01:00,
2013-01-02 03:06:00,19.6,13.0,30.00,NW,306,3.0,6.0,75,0.00,,---,0.00,VWS V14.01,2013-01-02 08:06:00,
2013-01-02 03:11:00,19.5,12.9,30.00,North,5,4.0,6.0,75,0.00,,---,0.00,VWS V14.01,2013-01-02 08:11:00,
2013-01-02 03:16:00,19.4,13.1,30.00,NNW,333,3.0,6.0,76,0.00,,---,0.00,VWS V14.01,2013-01-02 08:16:00,
2013-01-02 03:21:00,19.4,13.1,30.00,NNW,332,0.0,9.0,76,0.00,,---,0.00,VWS V14.01,2013-01-02 08:21:00,
2013-01-02 03:26:00,19.3,13.0,30.00,NW,318,5.0,9.0,76,0.00,,---,0.00,VWS V14.01,2013-01-02 08:26:00,
2013-01-02 03:31:00,19.3,12.7,30.00,North,360,2.0,4.0,75,0.00,,---,0.00,VWS V14.01,2013-01-02 08:31:00,
2013-01-02 03:36:00,19.3,12.7,29.99,NW,325,2.0,9.0,75,0.00,,---,0.00,VWS V14.01,2013-01-02 08:36:00,
2013-01-02 03:41:00,19.2,12.6,29.99,NNW,345,2.0,9.0,75,0.00,,---,0.00,VWS V14.01,2013-01-02 08:41:00,
2013-01-02 03:46:00,19.2,12.6,30.00,NNW,348,3.0,9.0,75,0.00,,---,0.00,VWS V14.01,2013-01-02 08:46:00,
2013-01-02 03:52:00,19.1,12.8,30.00,NNW,332,3.0,9.0,76,0.00,,---,0.00,VWS V14.01,2013-01-02 08:52:00,
2013-01-02 03:57:00,19.0,12.7,29.99,West,281,3.0,9.0,76,0.00,,---,0.00,VWS V14.01,2013-01-02 08:57:00,
2013-01-02 04:02:00,19.0,12.7,29.99,NW,325,3.0,3.0,76,0.00,,---,0.00,VWS V14.01,2013-01-02 09:02:00,
2013-01-02 04:07:00,18.9,12.6,29.98,NW,308,4.0,5.0,76,0.00,,---,0.00,VWS V14.01,2013-01-02 09:07:00,
2013-01-02 04:12:00,18.9,12.6,29.98,North,355,5.0,7.0,76,0.00,,---,0.00,VWS V14.01,2013-01-02 09:12:00,
2013-01-02 04:17:00,18.8,12.5,29.98,NNW,341,4.0,7.0,76,0.00,,---,0.00,VWS V14.01,2013-01-02 09:17:00,
2013-01-02 04:22:00,18.8,12.5,29.99,NW,319,4.0,9.0,76,0.00,,---,0.00,VWS V14.01,2013-01-02 09:22:00,
2013-01-02 04:27:00,18.8,12.5,29.99,NNW,333,2.0,9.0,76,0.00,,---,0.00,VWS V14.01,2013-01-02 09:27:00,
2013-01-02 04:32:00,18.8,12.2,29.99,North,9,1.0,5.0,75,0.00,,---,0.00,VWS V14.01,2013-01-02 09:32:00,
2013-01-02 04:38:00,18.8,12.5,29.99,North,5,1.0,5.0,76,0.00,,---,0.00,VWS V14.01,2013-01-02 09:38:00,
2013-01-02 04:43:00,18.9,12.6,29.99,NNW,329,2.0,5.0,76,0.00,,---,0.00,VWS V14.01,2013-01-02 09:43:00,
2013-01-02 04:48:00,18.8,12.2,29.99,NNW,332,2.0,7.0,75,0.00,,---,0.00,VWS V14.01,2013-01-02 09:48:00,
2013-01-02 04:53:00,18.8,12.2,29.99,NNW,329,0.0,7.0,75,0.00,,---,0.00,VWS V14.01,2013-01-02 09:53:00,
2013-01-02 04:58:00,18.8,12.2,29.98,NNW,340,2.0,7.0,75,0.00,,---,0.00,VWS V14.01,2013-01-02 09:58:00,
2013-01-02 05:03:00,18.7,12.1,29.99,NW,311,3.0,5.0,75,0.00,,---,0.00,VWS V14.01,2013-01-02 10:03:00,
2013-01-02 05:08:00,18.7,12.4,29.99,NNW,331,3.0,5.0,76,0.00,,---,0.00,VWS V14.01,2013-01-02 10:08:00,
2013-01-02 05:13:00,18.6,12.0,29.99,NNW,334,2.0,5.0,75,0.00,,---,0.00,VWS V14.01,2013-01-02 10:13:00,
2013-01-02 05:18:00,18.6,12.3,29.99,NNW,344,0.0,5.0,76,0.00,,---,0.00,VWS V14.01,2013-01-02 10:18:00,
2013-01-02 05:23:00,18.5,12.2,29.99,NNW,340,1.0,5.0,76,0.00,,---,0.00,VWS V14.01,2013-01-02 10:23:00,
2013-01-02 05:29:00,18.5,12.2,29.99,NW,311,0.0,5.0,76,0.00,,---,0.00,VWS V14.01,2013-01-02 10:29:00,
2013-01-02 05:34:00,18.5,12.2,29.99,NW,314,1.0,3.0,76,0.00,,---,0.00,VWS V14.01,2013-01-02 10:34:00,
2013-01-02 05:39:00,18.4,12.1,30.00,West,279,0.0,4.0,76,0.00,,---,0.00,VWS V14.01,2013-01-02 10:39:00,
2013-01-02 05:44:00,18.4,11.8,30.00,NW,315,1.0,4.0,75,0.00,,---,0.00,VWS V14.01,2013-01-02 10:44:00,
2013-01-02 05:49:00,18.4,11.8,30.00,NW,316,2.0,4.0,75,0.00,,---,0.00,VWS V14.01,2013-01-02 10:49:00,
2013-01-02 05:54:00,18.4,11.8,30.00,NW,316,0.0,4.0,75,0.00,,---,0.00,VWS V14.01,2013-01-02 10:54:00,
2013-01-02 05:59:00,18.3,12.0,30.00,NW,304,0.0,4.0,76,0.00,,---,0.00,VWS V14.01,2013-01-02 10:59:00,
2013-01-02 06:04:00,18.2,11.9,30.00,WNW,282,1.0,2.0,76,0.00,,---,0.00,VWS V14.01,2013-01-02 11:04:00,
2013-01-02 06:09:00,18.1,11.8,30.00,NW,320,0.0,3.0,76,0.00,,---,0.00,VWS V14.01,2013-01-02 11:09:00,
2013-01-02 06:14:00,18.0,12.0,30.01,NW,320,0.0,3.0,77,0.00,,---,0.00,VWS V14.01,2013-01-02 11:14:00,
2013-01-02 06:19:00,17.9,11.9,30.01,NW,320,0.0,3.0,77,0.00,,---,0.00,VWS V14.01,2013-01-02 11:19:00,
2013-01-02 06:24:00,17.9,11.6,30.00,NW,320,0.0,3.0,76,0.00,,---,0.00,VWS V14.01,2013-01-02 11:24:00,
2013-01-02 06:30:00,17.8,11.8,30.00,NW,320,0.0,3.0,77,0.00,,---,0.00,VWS V14.01,2013-01-02 11:30:00,
2013-01-02 06:35:00,17.7,11.7,30.01,NW,320,0.0,1.0,77,0.00,,---,0.00,VWS V14.01,2013-01-02 11:35:00,
2013-01-02 06:40:00,17.6,11.6,30.01,NW,320,0.0,1.0,77,0.00,,---,0.00,VWS V14.01,2013-01-02 11:40:00,
2013-01-02 06:45:00,17.5,11.5,30.01,NW,320,0.0,1.0,77,0.00,,---,0.00,VWS V14.01,2013-01-02 11:45:00,
2013-01-02 06:50:00,17.5,11.8,30.01,NW,320,0.0,1.0,78,0.00,,---,0.00,VWS V14.01,2013-01-02 11:50:00,
2013-01-02 06:55:00,17.5,11.8,30.01,NW,320,0.0,1.0,78,0.00,,---,0.00,VWS V14.01,2013-01-02 11:55:00,
2013-01-02 07:00:00,17.5,11.8,30.01,NW,320,0.0,0.0,78,0.00,,---,0.00,VWS V14.01,2013-01-02 12:00:00,
2013-01-02 07:05:00,17.4,11.7,30.02,WSW,243,3.0,3.0,78,0.00,,---,0.00,VWS V14.01,2013-01-02 12:05:00,
2013-01-02 07:10:00,17.6,11.6,30.02,NW,321,0.0,3.0,77,0.00,,---,0.00,VWS V14.01,2013-01-02 12:10:00,
2013-01-02 07:15:00,17.6,11.6,30.02,NW,321,0.0,3.0,77,0.00,,---,0.00,VWS V14.01,2013-01-02 12:15:00,
2013-01-02 07:20:00,17.5,11.8,30.02,NW,321,0.0,3.0,78,0.00,,---,0.00,VWS V14.01,2013-01-02 12:20:00,
2013-01-02 07:25:00,17.5,11.8,30.02,NW,321,0.0,3.0,78,0.00,,---,0.00,VWS V14.01,2013-01-02 12:25:00,
2013-01-02 07:31:00,17.4,11.7,30.02,NW,321,0.0,0.0,78,0.00,,---,0.00,VWS V14.01,2013-01-02 12:31:00,
2013-01-02 07:36:00,17.4,11.7,30.03,NW,321,0.0,1.0,78,0.00,,---,0.00,VWS V14.01,2013-01-02 12:36:00,
2013-01-02 07:41:00,17.4,11.7,30.03,NW,321,0.0,1.0,78,0.00,,---,0.00,VWS V14.01,2013-01-02 12:41:00,
2013-01-02 07:46:00,17.4,11.7,30.02,NW,321,0.0,1.0,78,0.00,,---,0.00,VWS V14.01,2013-01-02 12:46:00,
2013-01-02 07:51:00,17.5,11.8,30.03,NW,321,0.0,1.0,78,0.00,,---,0.00,VWS V14.01,2013-01-02 12:51:00,
2013-01-02 07:56:00,17.6,11.9,30.03,NW,321,0.0,1.0,78,0.00,,---,0.00,VWS V14.01,2013-01-02 12:56:00,
2013-01-02 08:01:00,17.7,12.0,30.03,NW,321,0.0,1.0,78,0.00,,---,0.00,VWS V14.01,2013-01-02 13:01:00,
2013-01-02 08:06:00,17.8,11.8,30.03,WNW,300,0.0,1.0,77,0.00,,---,0.00,VWS V14.01,2013-01-02 13:06:00,
2013-01-02 08:11:00,17.8,12.1,30.04,WNW,300,0.0,1.0,78,0.00,,---,0.00,VWS V14.01,2013-01-02 13:11:00,
2013-01-02 08:16:00,17.9,11.9,30.04,WNW,300,0.0,1.0,77,0.00,,---,0.00,VWS V14.01,2013-01-02 13:16:00,
2013-01-02 08:21:00,18.0,12.3,30.04,WNW,300,0.0,1.0,78,0.00,,---,0.00,VWS V14.01,2013-01-02 13:21:00,
2013-01-02 08:27:00,18.1,12.4,30.04,WNW,300,0.0,1.0,78,0.00,,---,0.00,VWS V14.01,2013-01-02 13:27:00,
2013-01-02 08:32:00,18.2,12.5,30.05,WNW,300,1.0,2.0,78,0.00,,---,0.00,VWS V14.01,2013-01-02 13:32:00,
2013-01-02 08:37:00,18.4,12.7,30.04,WNW,300,0.0,3.0,78,0.00,,---,0.00,VWS V14.01,2013-01-02 13:37:00,
2013-01-02 08:42:00,18.5,12.8,30.05,West,272,0.0,3.0,78,0.00,,---,0.00,VWS V14.01,2013-01-02 13:42:00,
2013-01-02 08:47:00,18.6,13.2,30.05,West,272,1.0,3.0,79,0.00,,---,0.00,VWS V14.01,2013-01-02 13:47:00,
2013-01-02 08:52:00,18.8,13.1,30.05,WNW,286,0.0,3.0,78,0.00,,---,0.00,VWS V14.01,2013-01-02 13:52:00,
2013-01-02 08:57:00,18.9,13.5,30.05,WNW,286,0.0,3.0,79,0.00,,---,0.00,VWS V14.01,2013-01-02 13:57:00,
2013-01-02 09:02:00,19.1,13.7,30.06,West,265,0.0,3.0,79,0.00,,---,0.00,VWS V14.01,2013-01-02 14:02:00,
2013-01-02 09:08:00,19.3,13.6,30.06,West,279,0.0,3.0,78,0.00,,---,0.00,VWS V14.01,2013-01-02 14:08:00,
2013-01-02 09:13:00,19.4,13.7,30.06,West,279,0.0,3.0,78,0.00,,---,0.00,VWS V14.01,2013-01-02 14:13:00,
2013-01-02 09:18:00,19.6,13.9,30.06,West,279,1.0,3.0,78,0.00,,---,0.00,VWS V14.01,2013-01-02 14:18:00,
2013-01-02 09:23:00,19.7,14.0,30.06,NW,309,0.0,3.0,78,0.00,,---,0.00,VWS V14.01,2013-01-02 14:23:00,
2013-01-02 09:28:00,19.9,14.2,30.06,NW,309,0.0,3.0,78,0.00,,---,0.00,VWS V14.01,2013-01-02 14:28:00,
2013-01-02 09:33:00,20.1,14.4,30.06,NW,310,1.0,3.0,78,0.00,,---,0.00,VWS V14.01,2013-01-02 14:33:00,
2013-01-02 09:38:00,20.3,14.6,30.06,West,265,2.0,3.0,78,0.00,,---,0.00,VWS V14.01,2013-01-02 14:38:00,
2013-01-02 09:43:00,20.5,14.7,30.06,WNW,290,0.0,3.0,78,0.00,,---,0.00,VWS V14.01,2013-01-02 14:43:00,
2013-01-02 09:49:00,20.8,14.7,30.07,West,272,3.0,3.0,77,0.00,,---,0.00,VWS V14.01,2013-01-02 14:49:00,
2013-01-02 09:54:00,21.0,14.9,30.06,West,272,0.0,3.0,77,0.00,,---,0.00,VWS V14.01,2013-01-02 14:54:00,
2013-01-02 09:59:00,21.2,14.8,30.06,NW,317,0.0,3.0,76,0.00,,---,0.00,VWS V14.01,2013-01-02 14:59:00,
2013-01-02 10:04:00,21.5,14.8,30.07,West,275,0.0,4.0,75,0.00,,---,0.00,VWS V14.01,2013-01-02 15:04:00,
2013-01-02 10:09:00,21.8,15.1,30.07,West,275,0.0,4.0,75,0.00,,---,0.00,VWS V14.01,2013-01-02 15:09:00,
2013-01-02 10:14:00,22.1,15.4,30.07,West,275,0.0,4.0,75,0.00,,---,0.00,VWS V14.01,2013-01-02 15:14:00,
2013-01-02 10:19:00,22.3,15.3,30.07,NW,312,2.0,5.0,74,0.00,,---,0.00,VWS V14.01,2013-01-02 15:19:00,
2013-01-02 10:24:00,22.4,15.4,30.07,WSW,253,0.0,5.0,74,0.00,,---,0.00,VWS V14.01,2013-01-02 15:24:00,
2013-01-02 10:29:00,22.6,15.6,30.06,West,269,0.0,5.0,74,0.00,,---,0.00,VWS V14.01,2013-01-02 15:29:00,
2013-01-02 10:34:00,23.0,15.6,30.06,NNW,336,0.0,7.0,73,0.00,,---,0.00,VWS V14.01,2013-01-02 15:34:00,
2013-01-02 10:39:00,23.1,15.4,30.06,NW,320,0.0,11.0,72,0.00,,---,0.00,VWS V14.01,2013-01-02 15:39:00,
2013-01-02 10:45:00,23.3,15.6,30.06,West,277,2.0,11.0,72,0.00,,---,0.00,VWS V14.01,2013-01-02 15:45:00,
2013-01-02 10:50:00,23.6,15.9,30.06,WSW,254,2.0,11.0,72,0.00,,---,0.00,VWS V14.01,2013-01-02 15:50:00,
2013-01-02 10:55:00,23.7,15.7,30.06,NW,304,3.0,11.0,71,0.00,,---,0.00,VWS V14.01,2013-01-02 15:55:00,
2013-01-02 11:00:00,23.7,16.0,30.06,NNW,327,6.0,11.0,72,0.00,,---,0.00,VWS V14.01,2013-01-02 16:00:00,
2013-01-02 11:05:00,23.6,15.9,30.06,NW,310,4.0,6.0,72,0.00,,---,0.00,VWS V14.01,2013-01-02 16:05:00,
2013-01-02 11:10:00,23.6,15.9,30.06,WNW,298,0.0,6.0,72,0.00,,---,0.00,VWS V14.01,2013-01-02 16:10:00,
2013-01-02 11:15:00,23.6,15.9,30.05,NW,317,6.0,7.0,72,0.00,,---,0.00,VWS V14.01,2013-01-02 16:15:00,
2013-01-02 11:20:00,23.7,16.0,30.05,NW,323,0.0,7.0,72,0.00,,---,0.00,VWS V14.01,2013-01-02 16:20:00,
2013-01-02 11:25:00,23.9,16.2,30.05,NNW,335,3.0,7.0,72,0.00,,---,0.00,VWS V14.01,2013-01-02 16:25:00,
2013-01-02 11:30:00,23.9,16.2,30.04,NW,314,5.0,5.0,72,0.00,,---,0.00,VWS V14.01,2013-01-02 16:30:00,
2013-01-02 11:35:00,24.0,16.3,30.05,West,262,1.0,5.0,72,0.00,,---,0.00,VWS V14.01,2013-01-02 16:35:00,
2013-01-02 11:40:00,24.2,16.5,30.04,West,270,2.0,5.0,72,0.00,,---,0.00,VWS V14.01,2013-01-02 16:40:00,
2013-01-02 11:46:00,24.3,16.3,30.04,West,259,3.0,5.0,71,0.00,,---,0.00,VWS V14.01,2013-01-02 16:46:00,
2013-01-02 11:51:00,24.4,16.7,30.04,WNW,283,3.0,6.0,72,0.00,,---,0.00,VWS V14.01,2013-01-02 16:51:00,
2013-01-02 11:56:00,24.5,16.8,30.03,West,265,0.0,6.0,72,0.00,,---,0.00,VWS V14.01,2013-01-02 16:56:00,
2013-01-02 12:01:00,24.7,17.0,30.03,WNW,285,2.0,3.0,72,0.00,,---,0.00,VWS V14.01,2013-01-02 17:01:00,
2013-01-02 12:06:00,24.9,16.8,30.03,NW,306,3.0,6.0,71,0.00,,---,0.00,VWS V14.01,2013-01-02 17:06:00,
2013-01-02 12:11:00,25.0,16.6,30.03,NW,306,2.0,7.0,70,0.00,,---,0.00,VWS V14.01,2013-01-02 17:11:00,
2013-01-02 12:16:00,25.2,16.8,30.03,NW,315,1.0,7.0,70,0.00,,---,0.00,VWS V14.01,2013-01-02 17:16:00,
2013-01-02 12:21:00,25.5,17.1,30.03,WNW,302,4.0,7.0,70,0.00,,---,0.00,VWS V14.01,2013-01-02 17:21:00,
2013-01-02 12:26:00,25.6,16.9,30.02,West,264,5.0,7.0,69,0.00,,---,0.00,VWS V14.01,2013-01-02 17:26:00,
2013-01-02 12:32:00,25.9,17.1,30.02,WNW,300,2.0,5.0,69,0.00,,---,0.00,VWS V14.01,2013-01-02 17:32:00,
2013-01-02 12:37:00,25.8,16.7,30.02,WNW,300,4.0,7.0,68,0.00,,---,0.00,VWS V14.01,2013-01-02 17:37:00,
2013-01-02 12:42:00,25.8,16.4,30.02,SW,230,5.0,7.0,67,0.00,,---,0.00,VWS V14.01,2013-01-02 17:42:00,
2013-01-02 12:47:00,25.8,16.4,30.02,North,355,4.0,9.0,67,0.00,,---,0.00,VWS V14.01,2013-01-02 17:47:00,
2013-01-02 12:52:00,26.0,16.6,30.03,NNW,332,5.0,9.0,67,0.00,,---,0.00,VWS V14.01,2013-01-02 17:52:00,
2013-01-02 12:57:00,26.2,16.8,30.03,WNW,292,4.0,9.0,67,0.00,,---,0.00,VWS V14.01,2013-01-02 17:57:00,
2013-01-02 13:02:00,26.2,16.4,30.03,NW,319,6.0,8.0,66,0.00,,---,0.00,VWS V14.01,2013-01-02 18:02:00,
2013-01-02 13:07:00,26.2,16.8,30.03,NW,309,5.0,8.0,67,0.00,,---,0.00,VWS V14.01,2013-01-02 18:07:00,
2013-01-02 13:12:00,26.3,16.5,30.03,NW,321,3.0,8.0,66,0.00,,---,0.00,VWS V14.01,2013-01-02 18:12:00,
2013-01-02 13:17:00,26.5,17.0,30.03,WNW,292,3.0,8.0,67,0.00,,---,0.00,VWS V14.01,2013-01-02 18:17:00,
2013-01-02 13:23:00,26.7,16.9,30.03,NW,311,4.0,9.0,66,0.00,,---,0.00,VWS V14.01,2013-01-02 18:23:00,
2013-01-02 13:28:00,26.7,17.2,30.04,WNW,298,1.0,9.0,67,0.00,,---,0.00,VWS V14.01,2013-01-02 18:28:00,
2013-01-02 13:33:00,26.7,16.9,30.04,North,355,2.0,6.0,66,0.00,,---,0.00,VWS V14.01,2013-01-02 18:33:00,
2013-01-02 13:38:00,26.8,16.6,30.04,NW,324,2.0,7.0,65,0.00,,---,0.00,VWS V14.01,2013-01-02 18:38:00,
2013-01-02 13:43:00,26.9,17.1,30.04,West,265,6.0,7.0,66,0.00,,---,0.00,VWS V14.01,2013-01-02 18:43:00,
2013-01-02 13:48:00,26.9,17.1,30.05,West,273,4.0,8.0,66,0.00,,---,0.00,VWS V14.01,2013-01-02 18:48:00,
2013-01-02 13:53:00,27.1,17.3,30.04,North,355,4.0,10.0,66,0.00,,---,0.00,VWS V14.01,2013-01-02 18:53:00,
2013-01-02 13:58:00,27.1,16.9,30.04,NNW,330,4.0,10.0,65,0.00,,---,0.00,VWS V14.01,2013-01-02 18:58:00,
2013-01-02 14:03:00,27.2,17.7,30.04,North,360,2.0,5.0,67,0.00,,---,0.00,VWS V14.01,2013-01-02 19:03:00,
2013-01-02 14:09:00,27.4,17.2,30.04,West,270,0.0,5.0,65,0.00,,---,0.00,VWS V14.01,2013-01-02 19:09:00,
2013-01-02 14:14:00,27.5,17.6,30.04,NNW,338,4.0,7.0,66,0.00,,---,0.00,VWS V14.01,2013-01-02 19:14:00,
2013-01-02 14:19:00,27.7,18.2,30.05,NW,306,2.0,7.0,67,0.00,,---,0.00,VWS V14.01,2013-01-02 19:19:00,
2013-01-02 14:24:00,27.9,18.0,30.04,NW,306,1.0,7.0,66,0.00,,---,0.00,VWS V14.01,2013-01-02 19:24:00,
2013-01-02 14:29:00,28.1,18.2,30.05,West,279,2.0,7.0,66,0.00,,---,0.00,VWS V14.01,2013-01-02 19:29:00,
2013-01-02 14:34:00,28.2,18.0,30.05,West,271,3.0,7.0,65,0.00,,---,0.00,VWS V14.01,2013-01-02 19:34:00,
2013-01-02 14:39:00,28.1,17.9,30.04,NNW,342,2.0,7.0,65,0.00,,---,0.00,VWS V14.01,2013-01-02 19:39:00,
2013-01-02 14:44:00,28.0,17.8,30.05,WNW,300,2.0,7.0,65,0.00,,---,0.00,VWS V14.01,2013-01-02 19:44:00,
2013-01-02 14:49:00,27.8,17.9,30.06,West,268,2.0,7.0,66,0.00,,---,0.00,VWS V14.01,2013-01-02 19:49:00,
2013-01-02 14:54:00,27.8,17.6,30.05,NW,311,3.0,8.0,65,0.00,,---,0.00,VWS V14.01,2013-01-02 19:54:00,
2013-01-02 14:59:00,27.7,17.1,30.05,West,279,4.0,9.0,64,0.00,,---,0.00,VWS V14.01,2013-01-02 19:59:00,
2013-01-02 15:04:00,27.6,17.0,30.05,West,269,2.0,7.0,64,0.00,,---,0.00,VWS V14.01,2013-01-02 20:04:00,
2013-01-02 15:09:00,27.6,17.4,30.05,SW,214,2.0,7.0,65,0.00,,---,0.00,VWS V14.01,2013-01-02 20:09:00,
2013-01-02 15:15:00,27.8,17.6,30.05,NNW,340,0.0,7.0,65,0.00,,---,0.00,VWS V14.01,2013-01-02 20:15:00,
2013-01-02 15:20:00,27.9,17.7,30.05,NW,316,1.0,7.0,65,0.00,,---,0.00,VWS V14.01,2013-01-02 20:20:00,
2013-01-02 15:25:00,27.9,17.0,30.06,NW,313,5.0,7.0,63,0.00,,---,0.00,VWS V14.01,2013-01-02 20:25:00,
2013-01-02 15:30:00,27.8,16.9,30.06,WNW,294,1.0,11.0,63,0.00,,---,0.00,VWS V14.01,2013-01-02 20:30:00,
2013-01-02 15:35:00,27.7,16.8,30.06,SW,234,5.0,9.0,63,0.00,,---,0.00,VWS V14.01,2013-01-02 20:35:00,
2013-01-02 15:40:00,27.7,17.1,30.06,NNW,339,6.0,10.0,64,0.00,,---,0.00,VWS V14.01,2013-01-02 20:40:00,
2013-01-02 15:45:00,27.7,17.1,30.07,NW,305,1.0,10.0,64,0.00,,---,0.00,VWS V14.01,2013-01-02 20:45:00,
2013-01-02 15:50:00,27.8,17.2,30.06,NW,304,1.0,10.0,64,0.00,,---,0.00,VWS V14.01,2013-01-02 20:50:00,
2013-01-02 15:55:00,27.9,17.7,30.07,WNW,303,0.0,10.0,65,0.00,,---,0.00,VWS V14.01,2013-01-02 20:55:00,
2013-01-02 16:00:00,27.8,17.2,30.07,NNW,327,2.0,3.0,64,0.00,,---,0.00,VWS V14.01,2013-01-02 21:00:00,
2013-01-02 16:05:00,27.8,17.6,30.06,NNE,12,5.0,6.0,65,0.00,,---,0.00,VWS V14.01,2013-01-02 21:05:00,
2013-01-02 16:10:00,27.8,17.2,30.06,NW,319,3.0,6.0,64,0.00,,---,0.00,VWS V14.01,2013-01-02 21:10:00,
2013-01-02 16:15:00,27.8,16.5,30.07,NW,313,3.0,7.0,62,0.00,,---,0.00,VWS V14.01,2013-01-02 21:15:00,
2013-01-02 16:20:00,27.8,16.9,30.07,North,360,5.0,7.0,63,0.00,,---,0.00,VWS V14.01,2013-01-02 21:20:00,
2013-01-02 16:26:00,27.7,16.8,30.07,NNW,342,0.0,7.0,63,0.00,,---,0.00,VWS V14.01,2013-01-02 21:26:00,
2013-01-02 16:31:00,27.6,16.7,30.07,NW,325,2.0,5.0,63,0.00,,---,0.00,VWS V14.01,2013-01-02 21:31:00,
2013-01-02 16:36:00,27.5,16.6,30.07,WNW,290,0.0,9.0,63,0.00,,---,0.00,VWS V14.01,2013-01-02 21:36:00,
2013-01-02 16:41:00,27.4,16.5,30.07,WNW,298,0.0,9.0,63,0.00,,---,0.00,VWS V14.01,2013-01-02 21:41:00,
2013-01-02 16:46:00,27.2,16.3,30.08,WNW,302,0.0,9.0,63,0.00,,---,0.00,VWS V14.01,2013-01-02 21:46:00,
2013-01-02 16:51:00,27.2,16.3,30.08,NNW,327,2.0,9.0,63,0.00,,---,0.00,VWS V14.01,2013-01-02 21:51:00,
2013-01-02 16:56:00,27.1,16.2,30.08,WSW,255,1.0,9.0,63,0.00,,---,0.00,VWS V14.01,2013-01-02 21:56:00,
2013-01-02 17:01:00,27.0,16.5,30.09,WNW,285,2.0,3.0,64,0.00,,---,0.00,VWS V14.01,2013-01-02 22:01:00,
2013-01-02 17:06:00,26.9,16.4,30.09,NW,317,2.0,4.0,64,0.00,,---,0.00,VWS V14.01,2013-01-02 22:06:00,
2013-01-02 17:11:00,27.0,16.5,30.09,NNW,340,3.0,6.0,64,0.00,,---,0.00,VWS V14.01,2013-01-02 22:11:00,
2013-01-02 17:16:00,26.9,16.4,30.09,WNW,298,1.0,6.0,64,0.00,,---,0.00,VWS V14.01,2013-01-02 22:16:00,
2013-01-02 17:21:00,26.8,16.6,30.10,NW,323,0.0,6.0,65,0.00,,---,0.00,VWS V14.01,2013-01-02 22:21:00,
2013-01-02 17:26:00,26.7,16.2,30.09,WSW,255,0.0,6.0,64,0.00,,---,0.00,VWS V14.01,2013-01-02 22:26:00,
2013-01-02 17:31:00,26.8,16.3,30.09,NW,319,0.0,3.0,64,0.00,,---,0.00,VWS V14.01,2013-01-02 22:31:00,
2013-01-02 17:37:00,26.6,16.4,30.10,West,271,0.0,3.0,65,0.00,,---,0.00,VWS V14.01,2013-01-02 22:37:00,
2013-01-02 17:42:00,26.4,16.6,30.10,West,271,0.0,3.0,66,0.00,,---,0.00,VWS V14.01,2013-01-02 22:42:00,
2013-01-02 17:47:00,26.2,16.4,30.10,West,271,0.0,3.0,66,0.00,,---,0.00,VWS V14.01,2013-01-02 22:47:00,
2013-01-02 17:52:00,26.2,16.8,30.10,West,271,0.0,3.0,67,0.00,,---,0.00,VWS V14.01,2013-01-02 22:52:00,
2013-01-02 17:57:00,26.1,16.7,30.10,West,271,0.0,3.0,67,0.00,,---,0.00,VWS V14.01,2013-01-02 22:57:00,
2013-01-02 18:02:00,26.0,16.9,30.11,West,271,0.0,1.0,68,0.00,,---,0.00,VWS V14.01,2013-01-02 23:02:00,
2013-01-02 18:07:00,25.9,16.8,30.11,West,271,0.0,3.0,68,0.00,,---,0.00,VWS V14.01,2013-01-02 23:07:00,
2013-01-02 18:12:00,25.8,16.7,30.12,West,271,0.0,3.0,68,0.00,,---,0.00,VWS V14.01,2013-01-02 23:12:00,
2013-01-02 18:17:00,25.7,16.6,30.12,West,271,0.0,3.0,68,0.00,,---,0.00,VWS V14.01,2013-01-02 23:17:00,
2013-01-02 18:22:00,25.7,16.6,30.12,West,271,0.0,3.0,68,0.00,,---,0.00,VWS V14.01,2013-01-02 23:22:00,
2013-01-02 18:27:00,25.5,16.8,30.12,West,271,0.0,3.0,69,0.00,,---,0.00,VWS V14.01,2013-01-02 23:27:00,
2013-01-02 18:32:00,25.4,16.7,30.12,West,271,0.0,0.0,69,0.00,,---,0.00,VWS V14.01,2013-01-02 23:32:00,
2013-01-02 18:37:00,25.3,16.6,30.12,West,271,0.0,1.0,69,0.00,,---,0.00,VWS V14.01,2013-01-02 23:37:00,
2013-01-02 18:42:00,25.3,16.6,30.12,West,271,0.0,1.0,69,0.00,,---,0.00,VWS V14.01,2013-01-02 23:42:00,
2013-01-02 18:47:00,25.2,16.8,30.12,West,271,0.0,1.0,70,0.00,,---,0.00,VWS V14.01,2013-01-02 23:47:00,
2013-01-02 18:52:00,25.1,16.7,30.12,West,271,0.0,1.0,70,0.00,,---,0.00,VWS V14.01,2013-01-02 23:52:00,
2013-01-02 18:57:00,24.9,16.5,30.12,West,271,0.0,2.0,70,0.00,,---,0.00,VWS V14.01,2013-01-02 23:57:00,
2013-01-02 19:03:00,24.8,16.8,30.12,West,271,0.0,2.0,71,0.00,,---,0.00,VWS V14.01,2013-01-03 00:03:00,
2013-01-02 19:08:00,24.8,16.8,30.12,West,271,0.0,2.0,71,0.00,,---,0.00,VWS V14.01,2013-01-03 00:08:00,
2013-01-02 19:13:00,24.6,16.5,30.12,West,271,0.0,2.0,71,0.00,,---,0.00,VWS V14.01,2013-01-03 00:13:00,
2013-01-02 19:18:00,24.5,16.8,30.12,West,271,0.0,2.0,72,0.00,,---,0.00,VWS V14.01,2013-01-03 00:18:00,
2013-01-02 19:23:00,24.3,16.6,30.12,West,271,0.0,2.0,72,0.00,,---,0.00,VWS V14.01,2013-01-03 00:23:00,
2013-01-02 19:28:00,24.3,16.6,30.12,West,271,0.0,2.0,72,0.00,,---,0.00,VWS V14.01,2013-01-03 00:28:00,
2013-01-02 19:33:00,24.2,16.5,30.12,West,271,0.0,0.0,72,0.00,,---,0.00,VWS V14.01,2013-01-03 00:33:00,
2013-01-02 19:38:00,24.0,16.6,30.13,West,271,0.0,1.0,73,0.00,,---,0.00,VWS V14.01,2013-01-03 00:38:00,
2013-01-02 19:43:00,23.9,16.8,30.12,West,271,0.0,1.0,74,0.00,,---,0.00,VWS V14.01,2013-01-03 00:43:00,
2013-01-02 19:48:00,23.8,16.7,30.12,West,271,0.0,1.0,74,0.00,,---,0.00,VWS V14.01,2013-01-03 00:48:00,
2013-01-02 19:54:00,23.6,16.5,30.13,West,271,0.0,1.0,74,0.00,,---,0.00,VWS V14.01,2013-01-03 00:54:00,
2013-01-02 19:59:00,23.6,16.5,30.12,WSW,252,0.0,2.0,74,0.00,,---,0.00,VWS V14.01,2013-01-03 00:59:00,
2013-01-02 20:04:00,23.6,16.5,30.12,WSW,252,0.0,2.0,74,0.00,,---,0.00,VWS V14.01,2013-01-03 01:04:00,
2013-01-02 20:09:00,23.5,16.8,30.13,WSW,252,0.0,2.0,75,0.00,,---,0.00,VWS V14.01,2013-01-03 01:09:00,
2013-01-02 20:14:00,23.4,16.7,30.13,WSW,252,0.0,2.0,75,0.00,,---,0.00,VWS V14.01,2013-01-03 01:14:00,
2013-01-02 20:19:00,23.4,16.7,30.12,WSW,252,1.0,2.0,75,0.00,,---,0.00,VWS V14.01,2013-01-03 01:19:00,
2013-01-02 20:24:00,23.5,16.8,30.13,WSW,252,0.0,2.0,75,0.00,,---,0.00,VWS V14.01,2013-01-03 01:24:00,
2013-01-02 20:29:00,23.5,16.5,30.13,WSW,252,0.0,2.0,74,0.00,,---,0.00,VWS V14.01,2013-01-03 01:29:00,
2013-01-02 20:34:00,23.4,16.7,30.14,South,186,0.0,2.0,75,0.00,,---,0.00,VWS V14.01,2013-01-03 01:34:00,
2013-01-02 20:39:00,23.3,16.6,30.13,WSW,257,0.0,2.0,75,0.00,,---,0.00,VWS V14.01,2013-01-03 01:39:00,
2013-01-02 20:44:00,23.2,16.5,30.13,WSW,257,0.0,2.0,75,0.00,,---,0.00,VWS V14.01,2013-01-03 01:44:00,
2013-01-02 20:49:00,23.0,16.3,30.14,WSW,257,0.0,2.0,75,0.00,,---,0.00,VWS V14.01,2013-01-03 01:49:00,
2013-01-02 20:54:00,23.0,16.3,30.14,WSW,257,0.0,2.0,75,0.00,,---,0.00,VWS V14.01,2013-01-03 01:54:00,
2013-01-02 20:59:00,22.9,16.5,30.13,WSW,257,0.0,2.0,76,0.00,,---,0.00,VWS V14.01,2013-01-03 01:59:00,
2013-01-02 21:04:00,22.8,16.4,30.13,WSW,257,0.0,2.0,76,0.00,,---,0.00,VWS V14.01,2013-01-03 02:04:00,
2013-01-02 21:09:00,22.7,16.3,30.13,WSW,248,0.0,3.0,76,0.00,,---,0.00,VWS V14.01,2013-01-03 02:09:00,
2013-01-02 21:14:00,22.7,16.3,30.14,WSW,248,0.0,3.0,76,0.00,,---,0.00,VWS V14.01,2013-01-03 02:14:00,
2013-01-02 21:19:00,22.7,16.3,30.14,WSW,248,0.0,3.0,76,0.00,,---,0.00,VWS V14.01,2013-01-03 02:19:00,
2013-01-02 21:24:00,22.7,16.3,30.14,WSW,248,0.0,3.0,76,0.00,,---,0.00,VWS V14.01,2013-01-03 02:24:00,
2013-01-02 21:29:00,22.6,16.5,30.14,WSW,248,0.0,3.0,77,0.00,,---,0.00,VWS V14.01,2013-01-03 02:29:00,
2013-01-02 21:35:00,22.6,16.5,30.14,WSW,248,0.0,0.0,77,0.00,,---,0.00,VWS V14.01,2013-01-03 02:35:00,
2013-01-02 21:40:00,22.6,16.5,30.14,WSW,248,0.0,1.0,77,0.00,,---,0.00,VWS V14.01,2013-01-03 02:40:00,
2013-01-02 21:45:00,22.6,16.5,30.15,WSW,248,0.0,1.0,77,0.00,,---,0.00,VWS V14.01,2013-01-03 02:45:00,
2013-01-02 21:50:00,22.6,16.5,30.15,WSW,248,0.0,1.0,77,0.00,,---,0.00,VWS V14.01,2013-01-03 02:50:00,
2013-01-02 21:55:00,22.7,16.3,30.15,WSW,248,0.0,1.0,76,0.00,,---,0.00,VWS V14.01,2013-01-03 02:55:00,
2013-01-02 22:00:00,22.8,16.4,30.15,West,281,1.0,2.0,76,0.00,,---,0.00,VWS V14.01,2013-01-03 03:00:00,
2013-01-02 22:05:00,22.9,16.5,30.15,West,268,1.0,4.0,76,0.00,,---,0.00,VWS V14.01,2013-01-03 03:05:00,
2013-01-02 22:10:00,22.9,16.5,30.15,West,261,0.0,4.0,76,0.00,,---,0.00,VWS V14.01,2013-01-03 03:10:00,
2013-01-02 22:15:00,22.8,16.4,30.15,West,261,0.0,4.0,76,0.00,,---,0.00,VWS V14.01,2013-01-03 03:15:00,
2013-01-02 22:20:00,22.8,16.4,30.15,West,261,0.0,4.0,76,0.00,,---,0.00,VWS V14.01,2013-01-03 03:20:00,
2013-01-02 22:25:00,22.8,16.4,30.15,West,261,0.0,4.0,76,0.00,,---,0.00,VWS V14.01,2013-01-03 03:25:00,
2013-01-02 22:30:00,22.7,16.6,30.15,West,261,0.0,4.0,77,0.00,,---,0.00,VWS V14.01,2013-01-03 03:30:00,
2013-01-02 22:35:00,22.6,16.2,30.16,NW,325,0.0,2.0,76,0.00,,---,0.00,VWS V14.01,2013-01-03 03:35:00,
2013-01-02 22:41:00,22.7,16.6,30.16,West,263,0.0,3.0,77,0.00,,---,0.00,VWS V14.01,2013-01-03 03:41:00,
2013-01-02 22:46:00,22.7,16.3,30.16,West,263,0.0,3.0,76,0.00,,---,0.00,VWS V14.01,2013-01-03 03:46:00,
2013-01-02 22:51:00,22.7,16.3,30.16,West,263,0.0,3.0,76,0.00,,---,0.00,VWS V14.01,2013-01-03 03:51:00,
2013-01-02 22:56:00,22.6,16.5,30.17,West,263,0.0,3.0,77,0.00,,---,0.00,VWS V14.01,2013-01-03 03:56:00,
2013-01-02 23:01:00,22.5,16.4,30.16,West,263,0.0,0.0,77,0.00,,---,0.00,VWS V14.01,2013-01-03 04:01:00,
2013-01-02 23:06:00,22.5,16.4,30.17,West,263,1.0,1.0,77,0.00,,---,0.00,VWS V14.01,2013-01-03 04:06:00,
2013-01-02 23:12:00,22.4,16.3,30.17,West,263,0.0,1.0,77,0.00,,---,0.00,VWS V14.01,2013-01-03 04:12:00,
2013-01-02 23:17:00,22.3,16.2,30.17,West,263,0.0,1.0,77,0.00,,---,0.00,VWS V14.01,2013-01-03 04:17:00,
2013-01-02 23:22:00,22.2,16.1,30.17,West,263,0.0,1.0,77,0.00,,---,0.00,VWS V14.01,2013-01-03 04:22:00,
2013-01-02 23:27:00,22.3,16.2,30.17,West,263,0.0,3.0,77,0.00,,---,0.00,VWS V14.01,2013-01-03 04:27:00,
2013-01-02 23:32:00,22.3,16.2,30.18,West,263,0.0,0.0,77,0.00,,---,0.00,VWS V14.01,2013-01-03 04:32:00,
2013-01-02 23:37:00,22.3,16.2,30.17,West,263,1.0,2.0,77,0.00,,---,0.00,VWS V14.01,2013-01-03 04:37:00,
2013-01-02 23:42:00,22.2,16.1,30.18,West,263,0.0,2.0,77,0.00,,---,0.00,VWS V14.01,2013-01-03 04:42:00,
2013-01-02 23:47:00,22.2,16.1,30.18,West,263,0.0,2.0,77,0.00,,---,0.00,VWS V14.01,2013-01-03 04:47:00,
2013-01-02 23:52:00,22.1,16.0,30.18,West,263,0.0,2.0,77,0.00,,---,0.00,VWS V14.01,2013-01-03 04:52:00,
2013-01-02 23:57:00,22.1,16.0,30.18,West,263,0.0,2.0,77,0.00,,---,0.00,VWS V14.01,2013-01-03 04:57:00,